Year,Month,Day,Hour,Minute,Value (Times are PST for temperature in C)
2015,03,28,00,00,10.90
2015,03,28,00,01,10.90
2015,03,28,00,02,11.00
2015,03,28,00,03,11.00
2015,03,28,00,04,11.00
2015,03,28,00,05,11.00
2015,03,28,00,06,11.00
2015,03,28,00,07,11.00
2015,03,28,00,08,11.10
2015,03,28,00,09,11.10
2015,03,28,00,10,11.10
2015,03,28,00,11,11.10
2015,03,28,00,12,11.20
2015,03,28,00,13,11.20
2015,03,28,00,14,11.20
2015,03,28,00,15,11.30
2015,03,28,00,16,11.30
2015,03,28,00,17,11.40
2015,03,28,00,18,11.40
2015,03,28,00,19,11.40
2015,03,28,00,20,11.50
2015,03,28,00,21,11.50
2015,03,28,00,22,11.50
2015,03,28,00,23,11.50
2015,03,28,00,24,11.50
2015,03,28,00,25,11.50
2015,03,28,00,26,11.50
2015,03,28,00,27,11.50
2015,03,28,00,28,11.50
2015,03,28,00,29,11.50
2015,03,28,00,30,11.50
2015,03,28,00,31,11.50
2015,03,28,00,32,11.50
2015,03,28,00,33,11.50
2015,03,28,00,34,11.40
2015,03,28,00,35,11.40
2015,03,28,00,36,11.40
2015,03,28,00,37,11.40
2015,03,28,00,38,11.40
2015,03,28,00,39,11.40
2015,03,28,00,40,11.40
2015,03,28,00,41,11.40
2015,03,28,00,42,11.40
2015,03,28,00,43,11.30
2015,03,28,00,44,11.30
2015,03,28,00,45,11.30
2015,03,28,00,46,11.20
2015,03,28,00,47,11.10
2015,03,28,00,48,11.10
2015,03,28,00,49,11.00
2015,03,28,00,50,11.00
2015,03,28,00,51,10.90
2015,03,28,00,52,10.80
2015,03,28,00,53,10.80
2015,03,28,00,54,10.70
2015,03,28,00,55,10.60
2015,03,28,00,56,10.60
2015,03,28,00,57,10.50
2015,03,28,00,58,10.40
2015,03,28,00,59,10.40
2015,03,28,01,00,10.30
2015,03,28,01,01,10.20
2015,03,28,01,02,10.20
2015,03,28,01,03,10.20
2015,03,28,01,04,10.10
2015,03,28,01,05,10.10
2015,03,28,01,06,10.10
2015,03,28,01,07,10.00
2015,03,28,01,08,10.00
2015,03,28,01,09,9.90
2015,03,28,01,10,9.90
2015,03,28,01,11,9.90
2015,03,28,01,12,9.90
2015,03,28,01,13,9.80
2015,03,28,01,14,9.80
2015,03,28,01,15,9.80
2015,03,28,01,16,9.80
2015,03,28,01,17,9.80
2015,03,28,01,18,9.80
2015,03,28,01,19,9.70
2015,03,28,01,20,9.70
2015,03,28,01,21,9.70
2015,03,28,01,22,9.70
2015,03,28,01,23,9.70
2015,03,28,01,24,9.70
2015,03,28,01,25,9.70
2015,03,28,01,26,9.70
2015,03,28,01,27,9.70
2015,03,28,01,28,9.60
2015,03,28,01,29,9.60
2015,03,28,01,30,9.60
2015,03,28,01,31,9.60
2015,03,28,01,32,9.60
2015,03,28,01,33,9.60
2015,03,28,01,34,9.60
2015,03,28,01,35,9.50
2015,03,28,01,36,9.50
2015,03,28,01,37,9.50
2015,03,28,01,38,9.50
2015,03,28,01,39,9.60
2015,03,28,01,40,9.60
2015,03,28,01,41,9.60
2015,03,28,01,42,9.60
2015,03,28,01,43,9.60
2015,03,28,01,44,9.60
2015,03,28,01,45,9.60
2015,03,28,01,46,9.60
2015,03,28,01,47,9.60
2015,03,28,01,48,9.60
2015,03,28,01,49,9.50
2015,03,28,01,50,9.50
2015,03,28,01,51,9.40
2015,03,28,01,52,9.40
2015,03,28,01,53,9.40
2015,03,28,01,54,9.40
2015,03,28,01,55,9.40
2015,03,28,01,56,9.40
2015,03,28,01,57,9.30
2015,03,28,01,58,9.30
2015,03,28,01,59,9.30
2015,03,28,02,00,9.30
2015,03,28,02,01,9.30
2015,03,28,02,02,9.20
2015,03,28,02,03,9.20
2015,03,28,02,04,9.20
2015,03,28,02,05,9.20
2015,03,28,02,06,9.20
2015,03,28,02,07,9.20
2015,03,28,02,08,9.20
2015,03,28,02,09,9.20
2015,03,28,02,10,9.20
2015,03,28,02,11,9.20
2015,03,28,02,12,9.20
2015,03,28,02,13,9.20
2015,03,28,02,14,9.20
2015,03,28,02,15,9.20
2015,03,28,02,16,9.20
2015,03,28,02,17,9.20
2015,03,28,02,18,9.20
2015,03,28,02,19,9.20
2015,03,28,02,20,9.20
2015,03,28,02,21,9.20
2015,03,28,02,22,9.20
2015,03,28,02,23,9.20
2015,03,28,02,24,9.20
2015,03,28,02,25,9.20
2015,03,28,02,26,9.20
2015,03,28,02,27,9.20
2015,03,28,02,28,9.20
2015,03,28,02,29,9.20
2015,03,28,02,30,9.20
2015,03,28,02,31,9.20
2015,03,28,02,32,9.20
2015,03,28,02,33,9.20
2015,03,28,02,34,9.20
2015,03,28,02,35,9.20
2015,03,28,02,36,9.20
2015,03,28,02,37,9.20
2015,03,28,02,38,9.10
2015,03,28,02,39,9.10
2015,03,28,02,40,9.10
2015,03,28,02,41,9.10
2015,03,28,02,42,9.10
2015,03,28,02,43,9.10
2015,03,28,02,44,9.10
2015,03,28,02,45,9.20
2015,03,28,02,46,9.20
2015,03,28,02,47,9.20
2015,03,28,02,48,9.20
2015,03,28,02,49,9.20
2015,03,28,02,50,9.30
2015,03,28,02,51,9.30
2015,03,28,02,52,9.30
2015,03,28,02,53,9.40
2015,03,28,02,54,9.40
2015,03,28,02,55,9.50
2015,03,28,02,56,9.50
2015,03,28,02,57,9.60
2015,03,28,02,58,9.60
2015,03,28,02,59,9.60
2015,03,28,03,00,9.70
2015,03,28,03,01,9.70
2015,03,28,03,02,9.70
2015,03,28,03,03,9.70
2015,03,28,03,04,9.70
2015,03,28,03,05,9.70
2015,03,28,03,06,9.70
2015,03,28,03,07,9.80
2015,03,28,03,08,9.80
2015,03,28,03,09,9.70
2015,03,28,03,10,9.70
2015,03,28,03,11,9.70
2015,03,28,03,12,9.70
2015,03,28,03,13,9.60
2015,03,28,03,14,9.60
2015,03,28,03,15,9.60
2015,03,28,03,16,9.50
2015,03,28,03,17,9.50
2015,03,28,03,18,9.40
2015,03,28,03,19,9.40
2015,03,28,03,20,9.40
2015,03,28,03,21,9.30
2015,03,28,03,22,9.30
2015,03,28,03,23,9.30
2015,03,28,03,24,9.30
2015,03,28,03,25,9.20
2015,03,28,03,26,9.20
2015,03,28,03,27,9.20
2015,03,28,03,28,9.20
2015,03,28,03,29,9.10
2015,03,28,03,30,9.10
2015,03,28,03,31,9.10
2015,03,28,03,32,9.10
2015,03,28,03,33,9.10
2015,03,28,03,34,9.00
2015,03,28,03,35,9.00
2015,03,28,03,36,9.00
2015,03,28,03,37,9.00
2015,03,28,03,38,8.90
2015,03,28,03,39,8.90
2015,03,28,03,40,8.90
2015,03,28,03,41,8.90
2015,03,28,03,42,8.90
2015,03,28,03,43,8.90
2015,03,28,03,44,8.80
2015,03,28,03,45,8.80
2015,03,28,03,46,8.80
2015,03,28,03,47,8.80
2015,03,28,03,48,8.80
2015,03,28,03,49,8.80
2015,03,28,03,50,8.80
2015,03,28,03,51,8.80
2015,03,28,03,52,8.70
2015,03,28,03,53,8.70
2015,03,28,03,54,8.70
2015,03,28,03,55,8.70
2015,03,28,03,56,8.70
2015,03,28,03,57,8.70
2015,03,28,03,58,8.70
2015,03,28,03,59,8.70
2015,03,28,04,00,8.70
2015,03,28,04,01,8.70
2015,03,28,04,02,8.70
2015,03,28,04,03,8.70
2015,03,28,04,04,8.70
2015,03,28,04,05,8.70
2015,03,28,04,06,8.70
2015,03,28,04,07,8.70
2015,03,28,04,08,8.70
2015,03,28,04,09,8.60
2015,03,28,04,10,8.60
2015,03,28,04,11,8.60
2015,03,28,04,12,8.60
2015,03,28,04,13,8.60
2015,03,28,04,14,8.60
2015,03,28,04,15,8.60
2015,03,28,04,16,8.60
2015,03,28,04,17,8.60
2015,03,28,04,18,8.60
2015,03,28,04,19,8.60
2015,03,28,04,20,8.60
2015,03,28,04,21,8.60
2015,03,28,04,22,8.60
2015,03,28,04,23,8.60
2015,03,28,04,24,8.60
2015,03,28,04,25,8.60
2015,03,28,04,26,8.60
2015,03,28,04,27,8.60
2015,03,28,04,28,8.60
2015,03,28,04,29,8.60
2015,03,28,04,30,8.60
2015,03,28,04,31,8.60
2015,03,28,04,32,8.60
2015,03,28,04,33,8.60
2015,03,28,04,34,8.60
2015,03,28,04,35,8.60
2015,03,28,04,36,8.60
2015,03,28,04,37,8.60
2015,03,28,04,38,8.60
2015,03,28,04,39,8.60
2015,03,28,04,40,8.60
2015,03,28,04,41,8.60
2015,03,28,04,42,8.60
2015,03,28,04,43,8.60
2015,03,28,04,44,8.60
2015,03,28,04,45,8.60
2015,03,28,04,46,8.60
2015,03,28,04,47,8.60
2015,03,28,04,48,8.60
2015,03,28,04,49,8.60
2015,03,28,04,50,8.60
2015,03,28,04,51,8.60
2015,03,28,04,52,8.60
2015,03,28,04,53,8.60
2015,03,28,04,54,8.60
2015,03,28,04,55,8.60
2015,03,28,04,56,8.60
2015,03,28,04,57,8.60
2015,03,28,04,58,8.60
2015,03,28,04,59,8.60
2015,03,28,05,00,8.60
2015,03,28,05,01,8.60
2015,03,28,05,02,8.50
2015,03,28,05,03,8.50
2015,03,28,05,04,8.50
2015,03,28,05,05,8.50
2015,03,28,05,06,8.50
2015,03,28,05,07,8.50
2015,03,28,05,08,8.50
2015,03,28,05,09,8.50
2015,03,28,05,10,8.50
2015,03,28,05,11,8.50
2015,03,28,05,12,8.50
2015,03,28,05,13,8.50
2015,03,28,05,14,8.50
2015,03,28,05,15,8.50
2015,03,28,05,16,8.50
2015,03,28,05,17,8.50
2015,03,28,05,18,8.50
2015,03,28,05,19,8.50
2015,03,28,05,20,8.50
2015,03,28,05,21,8.50
2015,03,28,05,22,8.50
2015,03,28,05,23,8.50
2015,03,28,05,24,8.40
2015,03,28,05,25,8.40
2015,03,28,05,26,8.40
2015,03,28,05,27,8.40
2015,03,28,05,28,8.50
2015,03,28,05,29,8.50
2015,03,28,05,30,8.50
2015,03,28,05,31,8.50
2015,03,28,05,32,8.50
2015,03,28,05,33,8.50
2015,03,28,05,34,8.40
2015,03,28,05,35,8.50
2015,03,28,05,36,8.50
2015,03,28,05,37,8.50
2015,03,28,05,38,8.50
2015,03,28,05,39,8.50
2015,03,28,05,40,8.50
2015,03,28,05,41,8.50
2015,03,28,05,42,8.50
2015,03,28,05,43,8.50
2015,03,28,05,44,8.50
2015,03,28,05,45,8.40
2015,03,28,05,46,8.40
2015,03,28,05,47,8.40
2015,03,28,05,48,8.40
2015,03,28,05,49,8.40
2015,03,28,05,50,8.40
2015,03,28,05,51,8.40
2015,03,28,05,52,8.40
2015,03,28,05,53,8.40
2015,03,28,05,54,8.40
2015,03,28,05,55,8.40
2015,03,28,05,56,8.40
2015,03,28,05,57,8.40
2015,03,28,05,58,8.40
2015,03,28,05,59,8.40
2015,03,28,06,00,8.40
2015,03,28,06,01,8.40
2015,03,28,06,02,8.40
2015,03,28,06,03,8.40
2015,03,28,06,04,8.40
2015,03,28,06,05,8.40
2015,03,28,06,06,8.40
2015,03,28,06,07,8.40
2015,03,28,06,08,8.40
2015,03,28,06,09,8.30
2015,03,28,06,10,8.30
2015,03,28,06,11,8.30
2015,03,28,06,12,8.30
2015,03,28,06,13,8.30
2015,03,28,06,14,8.30
2015,03,28,06,15,8.30
2015,03,28,06,16,8.20
2015,03,28,06,17,8.20
2015,03,28,06,18,8.20
2015,03,28,06,19,8.20
2015,03,28,06,20,8.20
2015,03,28,06,21,8.10
2015,03,28,06,22,8.10
2015,03,28,06,23,8.10
2015,03,28,06,24,8.00
2015,03,28,06,25,8.00
2015,03,28,06,26,8.00
2015,03,28,06,27,7.90
2015,03,28,06,28,7.90
2015,03,28,06,29,7.90
2015,03,28,06,30,7.90
2015,03,28,06,31,7.80
2015,03,28,06,32,7.80
2015,03,28,06,33,7.80
2015,03,28,06,34,7.80
2015,03,28,06,35,7.70
2015,03,28,06,36,7.70
2015,03,28,06,37,7.70
2015,03,28,06,38,7.70
2015,03,28,06,39,7.60
2015,03,28,06,40,7.60
2015,03,28,06,41,7.60
2015,03,28,06,42,7.60
2015,03,28,06,43,7.50
2015,03,28,06,44,7.50
2015,03,28,06,45,7.40
2015,03,28,06,46,7.40
2015,03,28,06,47,7.40
2015,03,28,06,48,7.30
2015,03,28,06,49,7.30
2015,03,28,06,50,7.30
2015,03,28,06,51,7.30
2015,03,28,06,52,7.30
2015,03,28,06,53,7.30
2015,03,28,06,54,7.20
2015,03,28,06,55,7.20
2015,03,28,06,56,7.20
2015,03,28,06,57,7.20
2015,03,28,06,58,7.20
2015,03,28,06,59,7.10
2015,03,28,07,00,7.10
2015,03,28,07,01,7.10
2015,03,28,07,02,7.10
2015,03,28,07,03,7.10
2015,03,28,07,04,7.00
2015,03,28,07,05,7.00
2015,03,28,07,06,7.00
2015,03,28,07,07,7.00
2015,03,28,07,08,7.00
2015,03,28,07,09,6.90
2015,03,28,07,10,6.90
2015,03,28,07,11,6.90
2015,03,28,07,12,6.90
2015,03,28,07,13,6.90
2015,03,28,07,14,6.90
2015,03,28,07,15,6.80
2015,03,28,07,16,6.80
2015,03,28,07,17,6.80
2015,03,28,07,18,6.80
2015,03,28,07,19,6.80
2015,03,28,07,20,6.80
2015,03,28,07,21,6.80
2015,03,28,07,22,6.80
2015,03,28,07,23,6.70
2015,03,28,07,24,6.70
2015,03,28,07,25,6.70
2015,03,28,07,26,6.70
2015,03,28,07,27,6.70
2015,03,28,07,28,6.70
2015,03,28,07,29,6.60
2015,03,28,07,30,6.60
2015,03,28,07,31,6.60
2015,03,28,07,32,6.60
2015,03,28,07,33,6.60
2015,03,28,07,34,6.60
2015,03,28,07,35,6.60
2015,03,28,07,36,6.60
2015,03,28,07,37,6.60
2015,03,28,07,38,6.60
2015,03,28,07,39,6.50
2015,03,28,07,40,6.50
2015,03,28,07,41,6.50
2015,03,28,07,42,6.50
2015,03,28,07,43,6.50
2015,03,28,07,44,6.50
2015,03,28,07,45,6.50
2015,03,28,07,46,6.40
2015,03,28,07,47,6.40
2015,03,28,07,48,6.40
2015,03,28,07,49,6.40
2015,03,28,07,50,6.40
2015,03,28,07,51,6.40
2015,03,28,07,52,6.40
2015,03,28,07,53,6.40
2015,03,28,07,54,6.40
2015,03,28,07,55,6.40
2015,03,28,07,56,6.40
2015,03,28,07,57,6.40
2015,03,28,07,58,6.40
2015,03,28,07,59,6.40
2015,03,28,08,00,6.40
2015,03,28,08,01,6.40
2015,03,28,08,02,6.40
2015,03,28,08,03,6.40
2015,03,28,08,04,6.50
2015,03,28,08,05,6.50
2015,03,28,08,06,6.60
2015,03,28,08,07,6.60
2015,03,28,08,08,6.60
2015,03,28,08,09,6.60
2015,03,28,08,10,6.60
2015,03,28,08,11,6.60
2015,03,28,08,12,6.60
2015,03,28,08,13,6.60
2015,03,28,08,14,6.60
2015,03,28,08,15,6.60
2015,03,28,08,16,6.60
2015,03,28,08,17,6.60
2015,03,28,08,18,6.60
2015,03,28,08,19,6.60
2015,03,28,08,20,6.70
2015,03,28,08,21,6.70
2015,03,28,08,22,6.80
2015,03,28,08,23,6.80
2015,03,28,08,24,6.80
2015,03,28,08,25,6.80
2015,03,28,08,26,6.80
2015,03,28,08,27,6.80
2015,03,28,08,28,6.80
2015,03,28,08,29,6.90
2015,03,28,08,30,6.90
2015,03,28,08,31,6.90
2015,03,28,08,32,6.90
2015,03,28,08,33,6.90
2015,03,28,08,34,7.00
2015,03,28,08,35,7.00
2015,03,28,08,36,7.10
2015,03,28,08,37,7.10
2015,03,28,08,38,7.20
2015,03,28,08,39,7.20
2015,03,28,08,40,7.30
2015,03,28,08,41,7.30
2015,03,28,08,42,7.30
2015,03,28,08,43,7.40
2015,03,28,08,44,7.40
2015,03,28,08,45,7.40
2015,03,28,08,46,7.40
2015,03,28,08,47,7.50
2015,03,28,08,48,7.50
2015,03,28,08,49,7.50
2015,03,28,08,50,7.60
2015,03,28,08,51,7.60
2015,03,28,08,52,7.60
2015,03,28,08,53,7.70
2015,03,28,08,54,7.70
2015,03,28,08,55,7.70
2015,03,28,08,56,7.70
2015,03,28,08,57,7.80
2015,03,28,08,58,7.80
2015,03,28,08,59,7.80
2015,03,28,09,00,7.80
2015,03,28,09,01,7.90
2015,03,28,09,02,7.90
2015,03,28,09,03,7.90
2015,03,28,09,04,8.00
2015,03,28,09,05,8.00
2015,03,28,09,06,8.00
2015,03,28,09,07,8.10
2015,03,28,09,08,8.10
2015,03,28,09,09,8.10
2015,03,28,09,10,8.20
2015,03,28,09,11,8.20
2015,03,28,09,12,8.30
2015,03,28,09,13,8.30
2015,03,28,09,14,8.40
2015,03,28,09,15,8.40
2015,03,28,09,16,8.50
2015,03,28,09,17,8.50
2015,03,28,09,18,8.60
2015,03,28,09,19,8.70
2015,03,28,09,20,8.70
2015,03,28,09,21,8.80
2015,03,28,09,22,8.80
2015,03,28,09,23,8.90
2015,03,28,09,24,9.00
2015,03,28,09,25,9.00
2015,03,28,09,26,9.10
2015,03,28,09,27,9.20
2015,03,28,09,28,9.20
2015,03,28,09,29,9.30
2015,03,28,09,30,9.30
2015,03,28,09,31,9.40
2015,03,28,09,32,9.40
2015,03,28,09,33,9.40
2015,03,28,09,34,9.50
2015,03,28,09,35,9.50
2015,03,28,09,36,9.60
2015,03,28,09,37,9.70
2015,03,28,09,38,9.70
2015,03,28,09,39,9.80
2015,03,28,09,40,9.80
2015,03,28,09,41,9.90
2015,03,28,09,42,9.90
2015,03,28,09,43,9.90
2015,03,28,09,44,10.00
2015,03,28,09,45,10.00
2015,03,28,09,46,10.00
2015,03,28,09,47,10.10
2015,03,28,09,48,10.10
2015,03,28,09,49,10.10
2015,03,28,09,50,10.20
2015,03,28,09,51,10.20
2015,03,28,09,52,10.20
2015,03,28,09,53,10.20
2015,03,28,09,54,10.30
2015,03,28,09,55,10.30
2015,03,28,09,56,10.40
2015,03,28,09,57,10.40
2015,03,28,09,58,10.40
2015,03,28,09,59,10.40
2015,03,28,10,00,10.50
2015,03,28,10,01,10.50
2015,03,28,10,02,10.50
2015,03,28,10,03,10.60
2015,03,28,10,04,10.60
2015,03,28,10,05,10.50
2015,03,28,10,06,10.50
2015,03,28,10,07,10.50
2015,03,28,10,08,10.50
2015,03,28,10,09,10.50
2015,03,28,10,10,10.60
2015,03,28,10,11,10.60
2015,03,28,10,12,10.60
2015,03,28,10,13,10.70
2015,03,28,10,14,10.70
2015,03,28,10,15,10.80
2015,03,28,10,16,10.80
2015,03,28,10,17,10.80
2015,03,28,10,18,10.80
2015,03,28,10,19,10.80
2015,03,28,10,20,10.80
2015,03,28,10,21,10.80
2015,03,28,10,22,10.90
2015,03,28,10,23,10.90
2015,03,28,10,24,11.00
2015,03,28,10,25,11.10
2015,03,28,10,26,11.10
2015,03,28,10,27,11.20
2015,03,28,10,28,11.20
2015,03,28,10,29,11.30
2015,03,28,10,30,11.30
2015,03,28,10,31,11.30
2015,03,28,10,32,11.30
2015,03,28,10,33,11.30
2015,03,28,10,34,11.30
2015,03,28,10,35,11.30
2015,03,28,10,36,11.40
2015,03,28,10,37,11.40
2015,03,28,10,38,11.40
2015,03,28,10,39,11.40
2015,03,28,10,40,11.40
2015,03,28,10,41,11.40
2015,03,28,10,42,11.40
2015,03,28,10,43,11.40
2015,03,28,10,44,11.40
2015,03,28,10,45,11.40
2015,03,28,10,46,11.40
2015,03,28,10,47,11.40
2015,03,28,10,48,11.40
2015,03,28,10,49,11.40
2015,03,28,10,50,11.40
2015,03,28,10,51,11.40
2015,03,28,10,52,11.30
2015,03,28,10,53,11.30
2015,03,28,10,54,11.30
2015,03,28,10,55,11.30
2015,03,28,10,56,11.30
2015,03,28,10,57,11.30
2015,03,28,10,58,11.20
2015,03,28,10,59,11.20
2015,03,28,11,00,11.20
2015,03,28,11,01,11.20
2015,03,28,11,02,11.10
2015,03,28,11,03,11.10
2015,03,28,11,04,11.10
2015,03,28,11,05,11.10
2015,03,28,11,06,11.10
2015,03,28,11,07,11.10
2015,03,28,11,08,11.10
2015,03,28,11,09,11.00
2015,03,28,11,10,11.00
2015,03,28,11,11,11.00
2015,03,28,11,12,11.00
2015,03,28,11,13,11.00
2015,03,28,11,14,11.00
2015,03,28,11,15,10.90
2015,03,28,11,16,10.90
2015,03,28,11,17,10.90
2015,03,28,11,18,10.90
2015,03,28,11,19,10.90
2015,03,28,11,20,10.90
2015,03,28,11,21,10.90
2015,03,28,11,22,10.90
2015,03,28,11,23,10.80
2015,03,28,11,24,10.80
2015,03,28,11,25,10.90
2015,03,28,11,26,10.90
2015,03,28,11,27,10.90
2015,03,28,11,28,10.90
2015,03,28,11,29,10.90
2015,03,28,11,30,10.80
2015,03,28,11,31,10.80
2015,03,28,11,32,10.80
2015,03,28,11,33,10.80
2015,03,28,11,34,10.90
2015,03,28,11,35,10.90
2015,03,28,11,36,10.80
2015,03,28,11,37,10.80
2015,03,28,11,38,10.80
2015,03,28,11,39,10.80
2015,03,28,11,40,10.80
2015,03,28,11,41,10.80
2015,03,28,11,42,10.80
2015,03,28,11,43,10.80
2015,03,28,11,44,10.80
2015,03,28,11,45,10.80
2015,03,28,11,46,10.80
2015,03,28,11,47,10.80
2015,03,28,11,48,10.80
2015,03,28,11,49,10.80
2015,03,28,11,50,10.80
2015,03,28,11,51,10.80
2015,03,28,11,52,10.80
2015,03,28,11,53,10.80
2015,03,28,11,54,10.80
2015,03,28,11,55,10.80
2015,03,28,11,56,10.80
2015,03,28,11,57,10.80
2015,03,28,11,58,10.80
2015,03,28,11,59,10.80
2015,03,28,12,00,10.80
2015,03,28,12,01,10.80
2015,03,28,12,02,10.80
2015,03,28,12,03,10.90
2015,03,28,12,04,10.90
2015,03,28,12,05,10.90
2015,03,28,12,06,10.90
2015,03,28,12,07,10.90
2015,03,28,12,08,10.90
2015,03,28,12,09,10.90
2015,03,28,12,10,10.90
2015,03,28,12,11,10.90
2015,03,28,12,12,11.00
2015,03,28,12,13,11.00
2015,03,28,12,14,11.00
2015,03,28,12,15,11.00
2015,03,28,12,16,11.00
2015,03,28,12,17,11.00
2015,03,28,12,18,11.10
2015,03,28,12,19,11.10
2015,03,28,12,20,11.10
2015,03,28,12,21,11.10
2015,03,28,12,22,11.10
2015,03,28,12,23,11.10
2015,03,28,12,24,11.10
2015,03,28,12,25,11.10
2015,03,28,12,26,11.10
2015,03,28,12,27,11.10
2015,03,28,12,28,11.10
2015,03,28,12,29,11.10
2015,03,28,12,30,11.10
2015,03,28,12,31,11.10
2015,03,28,12,32,11.10
2015,03,28,12,33,11.10
2015,03,28,12,34,11.10
2015,03,28,12,35,11.10
2015,03,28,12,36,11.10
2015,03,28,12,37,11.10
2015,03,28,12,38,11.10
2015,03,28,12,39,11.10
2015,03,28,12,40,11.10
2015,03,28,12,41,11.10
2015,03,28,12,42,11.10
2015,03,28,12,43,11.10
2015,03,28,12,44,11.20
2015,03,28,12,45,11.20
2015,03,28,12,46,11.20
2015,03,28,12,47,11.20
2015,03,28,12,48,11.20
2015,03,28,12,49,11.20
2015,03,28,12,50,11.20
2015,03,28,12,51,11.30
2015,03,28,12,52,11.30
2015,03,28,12,53,11.30
2015,03,28,12,54,11.30
2015,03,28,12,55,11.30
2015,03,28,12,56,11.30
2015,03,28,12,57,11.40
2015,03,28,12,58,11.40
2015,03,28,12,59,11.40
2015,03,28,13,00,11.40
2015,03,28,13,01,11.40
2015,03,28,13,02,11.40
2015,03,28,13,03,11.40
2015,03,28,13,04,11.40
2015,03,28,13,05,11.40
2015,03,28,13,06,11.40
2015,03,28,13,07,11.40
2015,03,28,13,08,11.40
2015,03,28,13,09,11.40
2015,03,28,13,10,11.30
2015,03,28,13,11,11.30
2015,03,28,13,12,11.20
2015,03,28,13,13,11.20
2015,03,28,13,14,11.10
2015,03,28,13,15,11.10
2015,03,28,13,16,11.10
2015,03,28,13,17,11.10
2015,03,28,13,18,11.00
2015,03,28,13,19,11.00
2015,03,28,13,20,11.00
2015,03,28,13,21,10.90
2015,03,28,13,22,10.90
2015,03,28,13,23,10.90
2015,03,28,13,24,10.90
2015,03,28,13,25,10.90
2015,03,28,13,26,10.90
2015,03,28,13,27,10.90
2015,03,28,13,28,10.90
2015,03,28,13,29,10.90
2015,03,28,13,30,10.90
2015,03,28,13,31,10.90
2015,03,28,13,32,10.90
2015,03,28,13,33,10.90
2015,03,28,13,34,10.90
2015,03,28,13,35,10.90
2015,03,28,13,36,10.90
2015,03,28,13,37,10.90
2015,03,28,13,38,10.90
2015,03,28,13,39,10.90
2015,03,28,13,40,10.90
2015,03,28,13,41,10.90
2015,03,28,13,42,10.90
2015,03,28,13,43,10.90
2015,03,28,13,44,10.90
2015,03,28,13,45,10.90
2015,03,28,13,46,10.90
2015,03,28,13,47,10.90
2015,03,28,13,48,10.90
2015,03,28,13,49,10.90
2015,03,28,13,50,10.90
2015,03,28,13,51,10.90
2015,03,28,13,52,10.90
2015,03,28,13,53,10.90
2015,03,28,13,54,10.90
2015,03,28,13,55,10.90
2015,03,28,13,56,10.90
2015,03,28,13,57,10.90
2015,03,28,13,58,10.90
2015,03,28,13,59,10.90
2015,03,28,14,00,10.90
2015,03,28,14,01,10.90
2015,03,28,14,02,11.00
2015,03,28,14,03,11.00
2015,03,28,14,04,11.00
2015,03,28,14,05,11.10
2015,03,28,14,06,11.10
2015,03,28,14,07,11.10
2015,03,28,14,08,11.10
2015,03,28,14,09,11.10
2015,03,28,14,10,11.10
2015,03,28,14,11,11.20
2015,03,28,14,12,11.20
2015,03,28,14,13,11.20
2015,03,28,14,14,11.20
2015,03,28,14,15,11.20
2015,03,28,14,16,11.30
2015,03,28,14,17,11.30
2015,03,28,14,18,11.30
2015,03,28,14,19,11.30
2015,03,28,14,20,11.30
2015,03,28,14,21,11.30
2015,03,28,14,22,11.40
2015,03,28,14,23,11.40
2015,03,28,14,24,11.40
2015,03,28,14,25,11.50
2015,03,28,14,26,11.50
2015,03,28,14,27,11.60
2015,03,28,14,28,11.60
2015,03,28,14,29,11.60
2015,03,28,14,30,11.60
2015,03,28,14,31,11.60
2015,03,28,14,32,11.60
2015,03,28,14,33,11.60
2015,03,28,14,34,11.60
2015,03,28,14,35,11.60
2015,03,28,14,36,11.50
2015,03,28,14,37,11.50
2015,03,28,14,38,11.50
2015,03,28,14,39,11.50
2015,03,28,14,40,11.40
2015,03,28,14,41,11.40
2015,03,28,14,42,11.40
2015,03,28,14,43,11.30
2015,03,28,14,44,11.30
2015,03,28,14,45,11.30
2015,03,28,14,46,11.30
2015,03,28,14,47,11.30
2015,03,28,14,48,11.20
2015,03,28,14,49,11.20
2015,03,28,14,50,11.10
2015,03,28,14,51,11.10
2015,03,28,14,52,11.10
2015,03,28,14,53,11.00
2015,03,28,14,54,11.00
2015,03,28,14,55,10.90
2015,03,28,14,56,10.90
2015,03,28,14,57,10.80
2015,03,28,14,58,10.80
2015,03,28,14,59,10.80
2015,03,28,15,00,10.70
2015,03,28,15,01,10.70
2015,03,28,15,02,10.80
2015,03,28,15,03,10.80
2015,03,28,15,04,10.80
2015,03,28,15,05,10.70
2015,03,28,15,06,10.70
2015,03,28,15,07,10.70
2015,03,28,15,08,10.60
2015,03,28,15,09,10.60
2015,03,28,15,10,10.60
2015,03,28,15,11,10.60
2015,03,28,15,12,10.70
2015,03,28,15,13,10.70
2015,03,28,15,14,10.70
2015,03,28,15,15,10.70
2015,03,28,15,16,10.70
2015,03,28,15,17,10.70
2015,03,28,15,18,10.70
2015,03,28,15,19,10.70
2015,03,28,15,20,10.70
2015,03,28,15,21,10.80
2015,03,28,15,22,10.80
2015,03,28,15,23,10.80
2015,03,28,15,24,10.80
2015,03,28,15,25,10.90
2015,03,28,15,26,10.90
2015,03,28,15,27,11.00
2015,03,28,15,28,11.00
2015,03,28,15,29,11.10
2015,03,28,15,30,11.10
2015,03,28,15,31,11.10
2015,03,28,15,32,11.20
2015,03,28,15,33,11.20
2015,03,28,15,34,11.30
2015,03,28,15,35,11.30
2015,03,28,15,36,11.30
2015,03,28,15,37,11.30
2015,03,28,15,38,11.30
2015,03,28,15,39,11.40
2015,03,28,15,40,11.40
2015,03,28,15,41,11.40
2015,03,28,15,42,11.40
2015,03,28,15,43,11.30
2015,03,28,15,44,11.40
2015,03,28,15,45,11.40
2015,03,28,15,46,11.40
2015,03,28,15,47,11.40
2015,03,28,15,48,11.40
2015,03,28,15,49,11.50
2015,03,28,15,50,11.50
2015,03,28,15,51,11.60
2015,03,28,15,52,11.70
2015,03,28,15,53,11.70
2015,03,28,15,54,11.80
2015,03,28,15,55,11.80
2015,03,28,15,56,11.90
2015,03,28,15,57,11.90
2015,03,28,15,58,11.90
2015,03,28,15,59,11.90
2015,03,28,16,00,11.90
2015,03,28,16,01,11.90
2015,03,28,16,02,11.90
2015,03,28,16,03,11.90
2015,03,28,16,04,11.90
2015,03,28,16,05,11.90
2015,03,28,16,06,11.90
2015,03,28,16,07,11.90
2015,03,28,16,08,11.90
2015,03,28,16,09,11.90
2015,03,28,16,10,11.90
2015,03,28,16,11,11.90
2015,03,28,16,12,11.90
2015,03,28,16,13,11.90
2015,03,28,16,14,11.90
2015,03,28,16,15,11.90
2015,03,28,16,16,11.90
2015,03,28,16,17,11.90
2015,03,28,16,18,11.90
2015,03,28,16,19,11.80
2015,03,28,16,20,11.80
2015,03,28,16,21,11.70
2015,03,28,16,22,11.70
2015,03,28,16,23,11.70
2015,03,28,16,24,11.70
2015,03,28,16,25,11.70
2015,03,28,16,26,11.70
2015,03,28,16,27,11.70
2015,03,28,16,28,11.70
2015,03,28,16,29,11.70
2015,03,28,16,30,11.60
2015,03,28,16,31,11.60
2015,03,28,16,32,11.60
2015,03,28,16,33,11.50
2015,03,28,16,34,11.50
2015,03,28,16,35,11.50
2015,03,28,16,36,11.50
2015,03,28,16,37,11.50
2015,03,28,16,38,11.40
2015,03,28,16,39,11.40
2015,03,28,16,40,11.40
2015,03,28,16,41,11.40
2015,03,28,16,42,11.40
2015,03,28,16,43,11.30
2015,03,28,16,44,11.30
2015,03,28,16,45,11.30
2015,03,28,16,46,11.30
2015,03,28,16,47,11.30
2015,03,28,16,48,11.30
2015,03,28,16,49,11.20
2015,03,28,16,50,11.20
2015,03,28,16,51,11.20
2015,03,28,16,52,11.20
2015,03,28,16,53,11.20
2015,03,28,16,54,11.20
2015,03,28,16,55,11.20
2015,03,28,16,56,11.10
2015,03,28,16,57,11.20
2015,03,28,16,58,11.20
2015,03,28,16,59,11.20
2015,03,28,17,00,11.20
2015,03,28,17,01,11.20
2015,03,28,17,02,11.20
2015,03,28,17,03,11.20
2015,03,28,17,04,11.20
2015,03,28,17,05,11.20
2015,03,28,17,06,11.20
2015,03,28,17,07,11.20
2015,03,28,17,08,11.10
2015,03,28,17,09,11.10
2015,03,28,17,10,11.10
2015,03,28,17,11,11.10
2015,03,28,17,12,11.10
2015,03,28,17,13,11.10
2015,03,28,17,14,11.10
2015,03,28,17,15,11.10
2015,03,28,17,16,11.10
2015,03,28,17,17,11.10
2015,03,28,17,18,11.10
2015,03,28,17,19,11.10
2015,03,28,17,20,11.10
2015,03,28,17,21,11.10
2015,03,28,17,22,11.10
2015,03,28,17,23,11.10
2015,03,28,17,24,11.20
2015,03,28,17,25,11.10
2015,03,28,17,26,11.10
2015,03,28,17,27,11.10
2015,03,28,17,28,11.10
2015,03,28,17,29,11.10
2015,03,28,17,30,11.10
2015,03,28,17,31,11.20
2015,03,28,17,32,11.20
2015,03,28,17,33,11.20
2015,03,28,17,34,11.20
2015,03,28,17,35,11.20
2015,03,28,17,36,11.20
2015,03,28,17,37,11.20
2015,03,28,17,38,11.20
2015,03,28,17,39,11.20
2015,03,28,17,40,11.10
2015,03,28,17,41,11.10